FENGYUN 1C DEB, 31538

Orbit data source: Space-Track

FENGYUN 1C DEB, 31538 is space debris in SSO originally from a launch on Mon, 10 May 1999 UTC launched from the Taiyaun Space Center, China (TSC). Fengyun 1C debris stems from the Chinese weather satellite Fengyun-1C, which was intentionally destroyed by a Chinese anti-satellite missile in 2007. This event dramatically increased the amount of space debris, with thousands of trackable fragments posing hazards to satellites and human spaceflight. The Fengyun 1C debris cloud has become a focal point in discussions about space sustainability and the need for international regulations to prevent the creation of new debris.

Loading next visibility...
Identifier
31538, 1999-025BYD
Orbit
SSO
Country
Flag of CNCN / PRC
Related business
Manufacturer
Unknown
Mission
Spacecraft
Bus & Motor
Unknown
Mass
Unknown
Launch date (UTC)
1999-05-10 (27 years ago)
Launch vehicle
Unknown
Launch site
Taiyaun Space Center, China (TSC)
Object type
Payload
Rocket body
Debris
Shape & HBR
Unknown shape, 0.1 m
Radar Cross Section
Small (<0.1 m²)

Expand to show TLE details & history
Last TLE update: 1 week ago

TLE from 1 week ago
0 FENGYUN 1C DEB
1 31538U 99025BYD 26111.92717039  .00294895  00000-0  71560-2 0  9992
2 31538  98.2326 357.0949 0009746 172.5443 187.5948 15.39819718689772
Epoch: 2026-04-21T22:15Z
TLE epoch observation values (Epoch: 2026-04-21T22:15:07.521Z)
Latitude
0.00005°
Longitude
173.31762°
Altitude
456.329 km
Speed
7.635 km/s
True Right ascension
23h 48m 22s
True Declination
0° 00' 00"
Sunlit
Object was in daylight at epoch
Visualization orbit readout
Latitude
Unknown
Longitude
Unknown
Altitude
Unknown
Speed
Unknown
Apparent Right ascension
Unknown
Apparent Declination
Unknown
Sunlit
N/A
Visualization observer readout
Local Sidereal Time
17:20:56
Azimuth
Unknown
Elevation
Unknown
Doppler factor
Unknown
Orbital elements
Apogee altitude
450.268 km
Perigee altitude
436.971 km
Semi-major axis
6,821.756 km
Eccentricity
0.00097
Inclination
98.2326°
RAAN
357.0949°
Arg. of periapsis
172.5443°
True anomaly
187.58006°
Mean anomaly
187.5948°
Eccentric anomaly
187.58743°
Mean motion
3.85211 °/min
Orbital period
93.46 mins
BSTAR
0.007156
Loading maneuver chart data...
Computing Atmospheric mass density...

Documentation

Showing up to 5 results
|